Regional Weather Roundup
Issued by NWS Charleston, SC

Current Version | Previous Version | Graphics & Text | Print | Product List | Glossary On
Versions: 1 2 3 4 5 6 7 8 9 10 11 12 13 14 15 16 17 18 19 20 21 22 23 24 25 26 27 28 29 30 31 32 33 34 35 36 37 38 39 40 41 42 43 44 45 46 47 48 49 50
000 ASUS42 KCHS 181510 RWRCHS REGIONAL WEATHER ROUNDUP NATIONAL WEATHER SERVICE CHARLESTON SC 1000 AM EST THU DEC 18 2014 NOTE: "FAIR" INDICATES FEW OR NO CLOUDS BELOW 12,000 FEET WITH NO SIGNIFICANT WEATHER AND/OR OBSTRUCTIONS TO VISIBILITY. NOT ALL STATIONS ARE QUALITY CONTROLLED BY THE NATIONAL WEATHER SERVICE. USE DATA WITH CAUTION...ESPECIALLY DEWPOINT OBSERVATIONS. SCZ027-030-031-034>040-042>050-181600- ...SOUTHEAST SOUTH CAROLINA... CITY SKY/WX TMP DP RH WIND PRES REMARKS N CHARLESTON PTSUNNY 54 43 66 NE3 30.17S WATERFRONT PRK N/A 52 N/A N/A N3 N/A MOUNT PLEASANT FAIR 54 45 71 CALM 30.17S PINOPOLIS N/A 52 45 76 NE5 30.09R MONCKS CORNER FAIR 52 45 76 NE3 30.17S SUMMERVILLE FAIR 46 45 93 CALM 30.18S BEAUFORT MCAS PTSUNNY 49 42 77 NW5 30.19R BEAUFORT ARPT FAIR 46 43 87 CALM 30.19R HILTON HEAD IS MOSUNNY 46 43 87 CALM 30.20R WALTERBORO MOSUNNY 48 48 100 CALM 30.19R ALLENDALE FAIR 46 43 87 CALM 30.18R ...SOUTHERN MIDLANDS AND PEE DEE... CITY SKY/WX TMP DP RH WIND PRES REMARKS GEORGETOWN NOT AVBL KINGSTREE NOT AVBL ORANGEBURG MOSUNNY 49 39 68 NE8 30.18R BARNWELL N/A 46 43 87 NW3 30.20R AIKEN FAIR 46 37 71 NE7 30.22R MANNING NOT AVBL COLUMBIA MOSUNNY 51 33 50 NE8 30.19R SUMTER SUNNY 49 34 55 E12 30.18R FLORENCE MOSUNNY 48 33 56 NE9 30.20R MYRTLE BEACH SUNNY 50 36 57 NE12 30.19R N MYRTLE BEACH MOSUNNY 50 32 50 NE14 30.18R $$ GAZ063-065-086>088-099>101-113>116-118-119-134>141-150-181600- ...SOUTHEAST GEORGIA... CITY SKY/WX TMP DP RH WIND PRES REMARKS SAVANNAH ARPT CLOUDY 47 39 74 NW7 30.20R HUNTER AAF CLOUDY 46 40 81 NW6 30.18R FORT STEWART CLOUDY 47 40 75 VRB6 30.19R STATESBORO PTSUNNY 45 44 99 CALM 30.18S SYLVANIA PTSUNNY 44 41 91 CALM 30.19S CLAXTON FAIR 43 41 93 CALM 30.20R ...CSRA...CENTRAL AND FAR SOUTHEAST GEORGIA... CITY SKY/WX TMP DP RH WIND PRES REMARKS THOMSON MOSUNNY 46 41 85 CALM 30.22S AUGUSTA-BUSH SUNNY 44 39 82 NW7 30.20R AUGUSTA-DANIEL SUNNY 47 38 71 N6 30.19R SWAINSBORO FAIR 43 43 100 NW6 30.20R VIDALIA PTSUNNY 45 39 81 CALM 30.19S EASTMAN FAIR 45 42 91 NW3 30.23S HAZLEHURST FAIR 46 42 88 CALM 30.19R ALMA CLOUDY 46 39 76 NW6 30.20R WAYCROSS CLOUDY 50 45 82 NW3 30.20S JESUP FAIR 50 43 76 CALM 30.20S BAXLEY FAIR 48 41 76 N5 30.19S BRUNSWICK CLOUDY 50 43 76 NW5 30.21R SAINT SIMONS CLOUDY 50 41 71 NW8 30.20R $$ SCZ027-028-034-036>038-045-046-048>050-GAZ119-141-181600- ...LAKE AND SUPPLEMENTAL COASTAL OBSERVATIONS... STATION/POSITION TIME TEMP WIND PRES WAVE SWELL AIR SEA DIR/SP/G HT/PER HT/PER/DIR (UTC) (F) (DEG/KT/KT) (MB) (FT/S) (FT/S/D) UPR LAKE MARION NOT AVBL WINYAH BAY 1400 45 20/ 4 1020.0S LAKE MURRAY 1400 45 40/ 3/ 6 1021.7R ACE BASIN NERRS 1400 42 300/ 1 1021.0S FORT PULASKI 1400 44 56 300/ 7/ 8 1022.7R SAPELO ISLAND 1400 46 320/ 6 1022.0S $$ ANZ835-935-AMZ111-154-330-350-352-354-370-450-454-472-181600- ...C-MAN AND BUOY OBSERVATIONS... STATION/POSITION TIME TEMP WIND PRES WAVE SWELL AIR SEA DIR/SP/G HT/PER HT/PER/DIR (UTC) (F) (DEG/KT/KT) (MB) (FT/S) (FT/S/D) BUOY 41004 1500 60 72 320/ 6/ 10 1021.1R 1/ 9 2/ 9 BUOY 41008 1500 51 57 320/ 10/ 12 1022.3R 1/11 FOLLY BEACH CMAN 1400 50 350/ 2/ 3 1021.7R CAPERS NEARSHORE 1400 54 20/ 4/ 6 N/A FRIPP NEARSHORE NOT AVBL STATION/POSITION TIME TEMP WIND PRES WAVE SWELL AIR SEA DIR/SP/G HT/PER HT/PER/DIR (UTC) (F) (DEG/KT/KT) (MB) (FT/S) (FT/S/D) 5E ST. MARYS GA 1500 61 N/A 1/10 FRYING PAN BUOY 1500 55 64 40/ 16/ 17 1021.7R 2/ 3 2/170/ 8 BUOY 41025 NOT AVBL CAPE LOOKOUT NC 1400 46 10/ 10/ 12 1021.0R BUOY 41002 1413 70 72 320/ 12/ 14 1020.0R 3/ 7 3/280/ 7 BUOY 41010 1500 72 76 280/ 10/ 14 1021.1R 2/10 2/ 60/10 ST AUGUSTINE FL 1500 54 320/ 3/ 4 1023.1R $$

USA.gov is the U.S. government's official web portal to all federal, state and local government web resources and services.